Location: Alfortville
(48.8058°N, 2.4204°E)
Time: 02:48:28
(UTC+00:00)

Envisat - Pass Details

Date: 05 December 2022
Orbit: 763 x 765 km, 98.2° (Epoch: 28 January)

Event Time Altitude Azimuth Distance (km) Brightness Sun altitude
Rises 04:44:00 0° 10° (N) 3,246 6.3 -25.8°
Reaches altitude 10° 04:46:22 10° 5° (N) 2,315 5.5 -25.4°
Enters shadow 04:48:36 26° 355° (N) 1,499 4.4 -25.1°
